Location: Unspecified
(20.0000°S, 0.0000°E)
Time: 01:35:48
(UTC+00:00)

ISS - Pass Details

Date: 24 May 2019
Orbit: 408 x 418 km, 51.6° (Epoch: 18 June)

Event Time Altitude Azimuth Distance (km) Brightness Sun altitude
Exits shadow 05:42:05 13° 276° (W) 1,344 -1.8 -10.2°
Maximum altitude 05:44:20 23° 227° (SW) 949 -2.5 -9.7°
Drops below altitude 10° 05:47:05 10° 172° (S) 1,502 -1.1 -9.1°
Sets 05:49:29 0° 157° (SSE) 2,368 0.1 -8.6°
